www.pogodaiklimat.ru

Погода и климат >> Архив погоды >> Филиппины >> Дает


ПОГОДА в Даете

  • Прогноз погоды в Даете
  • Монитор погоды в Даете

АРХИВ ПОГОДЫ в Даете

Время (UTC), дата Ветер
(напр.,м/с)
 
Видим.   Явления Облачность Т
(С)
Тd
(С)
f
(%)
Тe
(С)
Тes
(С)
Комфортность P
(гПа)
Po
(гПа)
Тmin
(С)
Tmax
(С)
R
(мм)
R24
(мм)
S
(см)
21 18.06 штиль 0 12 км 10/1 450 м
[Cu med, cong Cs]
+26.6 +25.8 95 +39 +39 очень
душно
1009.0 1008.5
00 19.06 Ю 2 20 км мгла {туман} 3/3 450 м
[Cu med, cong]
+30.4 +26.8 81 +47 +53 опасность
перегрева
1009.9 1009.4 +25.7 2
03 19.06 СВ 1 25 км мгла {туман} 1/1 450 м
[Cu med, cong]
+32.2 +27.6 77 +52 +74 опасность
перегрева
1009.7 1009.2
06 19.06 В 2 20 км мгла {туман} 1/1 450 м
[Cu med, cong]
+32.6 +28.8 80 +55 +69 опасность
перегрева
1007.3 1006.8
09 19.06 В 3 18 км мгла {туман} 1/1 450 м
[Cu med, cong]
+32.2 +28.2 79 +53 +54 опасность
перегрева
1006.5 1006.0
12 19.06 В 3 6000 м {туман} 3/1 450 м
[Cu med, cong Ac trans]
+29.3 +27.9 92 +48 +48 опасность
перегрева
1008.3 1007.8 +34.0
15 19.06 ЮВ 2 6000 м зарница {ливн. осадки} 4/1 450 м
[Cb calv Ac cast]
+29.4 +27.4 89 +47 +47 опасность
перегрева
1009.3 1008.8 0.0
18 19.06 Ю 1 7000 м {ливн. осадки} 4/3 450 м
[Cu med, cong Ac trans]
+28.4 +27.2 93 +45 +45 опасность
перегрева
1008.3 1007.8 0.0
21 19.06 Ю 1 14 км 10/3 450 м
[Cu med, cong Cs]
+27.0 +26.2 95 +41 +41 опасность
перегрева
1008.3 1007.8
00 20.06 В 3 12 км мгла {туман} 3/3 450 м
[Cu med, cong]
+30.4 +25.7 76 +45 +49 опасность
перегрева
1008.8 1008.3 +27.0 0.0
03 20.06 В 2 18 км осадки на расстоянии {ливн. осадки, туман} 3/3 450 м
[Cb calv]
+32.2 +27.1 75 +51 +65 опасность
перегрева
1008.5 1008.0 0.8
06 20.06 В 2 18 км осадки на расстоянии {туман, ливн. осадки} 5/5 450 м
[Cb cap Ac trans Ci fib]
+32.8 +27.7 75 +53 +61 опасность
перегрева
1007.3 1006.8 0.8
09 20.06 З 1 15 км мгла {туман} 5/3 450 м
[Cu med, cong Ac trans]
+31.8 +28.3 82 +53 +54 опасность
перегрева
1007.1 1006.6
12 20.06 штиль 0 6000 м {туман} 3/3 450 м
[Cu med, cong]
+30.0 +28.0 89 +50 +50 опасность
перегрева
1009.0 1008.5 +33.8
15 20.06 штиль 0 6000 м 1/1 450 м
[Cu med, cong]
+27.8 +26.5 93 +43 +43 опасность
перегрева
1009.7 1009.2
18 20.06 ЮЗ 1 6000 м 1/1 450 м
[Cu med, cong]
+26.4 +25.4 94 +38 +38 очень
душно
1007.8 1007.3
21 20.06 ЮЗ 1 14 км 3/3 450 м
[Cu med, cong]
+25.4 +24.6 95 +36 +36 очень
душно
1007.5 1007.0
00 21.06 Ю 1 20 км мгла {туман} 1/1 450 м
[Cu med, cong]
+29.4 +26.4 84 +45 +53 опасность
перегрева
1009.0 1008.5 +25.6 0.8
03 21.06 В 3 20 км мгла {туман} 1/1 450 м
[Cu med, cong]
+33.2 +27.9 74 +54 +69 опасность
перегрева
1008.6 1008.1
06 21.06 В 1 20 км осадки на расстоянии {туман} 1/1 450 м
[Cb calv]
+33.6 +26.7 67 +51 +67 опасность
перегрева
1006.7 1006.2
09 21.06 З 2 18 км осадки на расстоянии {туман} 6/6 450 м
[Cb cap]
+31.6 +27.5 79 +51 +51 опасность
перегрева
1006.7 1006.2
12 21.06 Ю 1 6000 м зарница {ливн. осадки, туман} 1/1 450 м
[Cb cap]
+27.4 +25.6 90 +40 +40 очень
душно
1009.1 1008.6 +34.4 5
15 21.06 Ю 1 6000 м зарница {ливн. осадки} 3/3 450 м
[Cb cap]
+25.8 +24.2 91 +36 +36 очень
душно
1009.8 1009.3
18 21.06 Ю 1 6000 м 1/1 450 м
[Cu med, cong]
+25.2 +23.6 91 +34 +34 очень
душно
1007.5 1007.0
21 21.06 ЮЗ 1 12 км 1/1 450 м
[Cu med, cong Ci fib]
+25.0 +23.4 91 +34 +34 очень
душно
1006.7 1006.2
00 22.06 ЮЗ 1 20 км мгла {туман} 1/1 450 м
[Cu med, cong Ci fib]
+28.3 +26.4 89 +43 +51 опасность
перегрева
1007.7 1007.2 +25.2 5
03 22.06 СВ 1 20 км мгла {туман} 1/1 450 м
[Cu med, cong Ci fib]
+32.0 +27.0 75 +50 +72 опасность
перегрева
1008.0 1007.5
06 22.06 СВ 2 20 км мгла {туман} 1/1 450 м
[Cb calv Ci fib]
+33.0 +25.7 66 +48 +62 опасность
перегрева
1005.9 1005.4
09 22.06 СВ 2 20 км осадки на расстоянии {туман} 5/4 450 м
[Cb cap Ci sp]
+32.6 +27.8 76 +53 +54 опасность
перегрева
1005.5 1005.0
12 22.06 Ю 1 6000 м {туман} 1/1 450 м
[Cu med, cong]
+29.0 +26.4 86 +44 +44 опасность
перегрева
1008.1 1007.6 +33.5
15 22.06 Ю 1 6000 м 5/1 450 м
[Cu med, cong Ci fib]
+27.0 +25.3 90 +39 +39 очень
душно
1008.8 1008.3
18 22.06 Ю 1 6000 м 8/3 450 м
[Cu med, cong Cs]
+26.0 +24.1 89 +36 +36 очень
душно
1006.8 1006.3
21 22.06 ЮВ 1 12 км 1/1 450 м
[Cu med, cong Ac trans Ci fib]
+25.5 +23.2 87 +34 +34 очень
душно
1006.7 1006.2
00 23.06 Ю 1 20 км мгла {туман} 3/1 450 м
[Cu med, cong Ci fib]
+29.6 +26.5 83 +45 +53 опасность
перегрева
1008.2 1007.7 +24.4
03 23.06 В 2 20 км мгла {туман} 10/3 450 м
[Cu med, cong Cs]
+32.4 +28.9 82 +56 +67 опасность
перегрева
1007.9 1007.4
06 23.06 Ю 4 20 км осадки на расстоянии {туман} 5/3 450 м
[Cb calv Ac trans Ci fib]
+33.0 +28.7 78 +55 +62 опасность
перегрева
1006.5 1006.0
09 23.06 Ю 1 10 км слаб. ливневой дождь {туман} 10/6 450 м
[Cb cap Cs]
+31.2 +27.5 81 +50 +51 опасность
перегрева
1005.9 1005.4 5
12 23.06 Ю 2 6000 м зарница {ливн. осадки, туман} 9/1 450 м
[Cb cap Ac trans Cs]
+28.4 +26.6 90 +44 +44 опасность
перегрева
1008.2 1007.7 +34.5 36
15 23.06 З 1 5000 м зарница {ливн. осадки} 10/3 450 м
[Cb cap Ac trans Cs]
+27.8 +25.4 87 +41 +41 опасность
перегрева
1009.5 1009.0
18 23.06 Ю 2 6000 м зарница 9/3 450 м
[Cb cap Ac trans Cs]
+26.7 +24.4 87 +37 +37 очень
душно
1007.5 1007.0
21 23.06 С 6 4000 м слаб. дождь 10/5 480 м
[Cu Sc As op]
+24.7 +22.6 88 +32 +32 очень
душно
1009.3 1008.8 0.2
00 24.06 Ю 2 10 км слаб. дождь {гроза} 10/5 450 м
[Sc Ac As]
+25.1 +24.3 95 +35 +36 очень
душно
1010.4 1009.9 +24.3 58
03 24.06 Ю 1 12 км {ливн. осадки} 10/4 450 м
[Sc Ac As Cs]
+29.0 +25.1 80 +42 +49 опасность
перегрева
1009.3 1008.8 0.0
06 24.06 З 3 12 км гроза без осадков 9/4 450 м
[Cb calv Ac trans]
+31.2 +27.1 79 +49 +53 опасность
перегрева
1008.1 1007.6 0.0
09 24.06 Ю 2 10 км {гроза} 6/3 450 м
[Cu med, cong Ac trans Cs]
+31.2 +27.1 79 +49 +50 опасность
перегрева
1007.1 1006.6
12 24.06 Ю 3 6000 м зарница 1/1 450 м
[Cb calv]
+28.3 +25.6 85 +42 +42 опасность
перегрева
1009.0 1008.5 +32.2
15 24.06 Ю 2 5000 м в посл. час гроза {ливн. осадки} 9/9 450 м
[]
+26.7 +24.4 87 +37 +37 очень
душно
1009.8 1009.3
18 24.06 ЮЗ 1 5000 м зарница 10/3 450 м
[Cb cap Cs]
+26.4 +24.0 87 +37 +37 очень
душно
1008.5 1008.0
21 24.06 Ю 1 8000 м осадки на расстоянии {ливн. осадки} 10/5 480 м
[Cu Sc Ac As]
+26.0 +24.1 89 +36 +36 очень
душно
1008.5 1008.0 0.0
00 25.06 ЮВ 1 20 км мгла {туман} 9/1 450 м
[Cu med, cong Ac trans Cs]
+28.2 +25.0 83 +41 +45 опасность
перегрева
1009.6 1009.1 +24.6 0.3
03 25.06 З 3 20 км осадки на расстоянии {туман} 8/4 450 м
[Cb cap Ac trans Ci fib]
+31.9 +27.7 79 +52 +59 опасность
перегрева
1009.8 1009.3
06 25.06 Ю 3 1000 м гроза, ливневой дождь {туман} 10/8 450 м
[Cb cap As op]
+28.9 +24.5 77 +41 +41 опасность
перегрева
1008.0 1007.5 8
09 25.06 Ю 1 10 км слаб. ливневой дождь {гроза} 10/6 450 м
[Cb calv Ac As Cs]
+28.2 +26.9 93 +44 +45 опасность
перегрева
1008.3 1007.8 11
12 25.06 Ю 2 5000 м слаб. ливневой дождь {гроза} 10/5 450 м
[Cb calv Ac As Cs]
+27.0 +26.5 97 +41 +41 опасность
перегрева
1009.8 1009.3 +31.9 12

 

Местоположение метеостанции Дает (Филиппины): широта 14.13 долгота 122.98 высота над уровнем моря 4 м.

В архиве по умолчанию представлена погода в Даете за последнюю неделю. Архивные данные за месяц целиком и за предыдущие месяцы, начиная с января 2011 года, Вы можете получить, выбрав интересующий диапазон дат из раскрывающегося списка и нажав кнопку "Ввод!".


*Определитесь, кто Вы:
робот инопланетянин человек

Внимание! Время в таблицах - всемирное. Для получения местного времени необходимо прибавить поправку, которая равна 8 ч.

Смотрите также архив погоды в соседних городах и на ближайших метеорологических станциях:

Погода на Алабате (Филиппины) (105 км)
Погода в Легаспи (Филиппины) (138 км)
Погода в Вираке (Филиппины) (148 км)
Погода в Тайябасе (Филиппины) (151 км)
Погода в Инфанте (Филиппины) (159 км)
Погода в Танае (Филиппины) (180 км)
Погода в Ромблоне (Филиппины) (189 км)
Погода в Масбате (Филиппины) (207 км)
Погода на Амбулонге (Филиппины) (208 км)
Погода в Калапане (Филиппины) (210 км)

Пояснения к столбцам:

Ветер - указаны скорость ветра в м/с - средняя за 10 мин, порывы в срок и между сроками (в фигурных скобках) и направление, откуда дует ветер: С - северный, СВ - северо-восточный, В - восточный, ЮВ - юго-восточный, Ю - южный, ЮЗ - юго-западный, З - западный, СЗ - северо-западный.
Видимость - горизонтальная дальность видимости в метрах или километрах. При видимости от 1 до 10 км при отсутствии осадков обычно наблюдается дымка, при ухудшении видимости до 1 км и менее - туман. В сухую погоду видимость может ухудшаться дымом, пылью или мглою.
Явления - указаны атмосферные явления, наблюдавшиеся в срок или в последний час перед сроком; фигурными скобками обозначены явления, наблюдавшиеся между сроками (за 1-3 часа до срока); квадратными скобками обозначены град или гололедные отложения с указанием их диаметра в мм.
Облачность - указаны через наклонную черту общая и нижняя облачность в баллах и высота нижней границы облаков в метрах; квадратными скобками обозначены формы облаков: Ci - перистые, Cs - перисто-слоистые, Cc - перисто-кучевые, Ac - высококучевые, As - высокослоистые, Sc - слоисто-кучевые, Ns - слоисто-дождевые, Cu - кучевые, Cb - кучево-дождевые. Подробнее классификацию облаков см. в Атласе облаков (PDF).
T - Температура воздуха - температура, измеренная на высоте 2 м над землей.
Td - Температура точки росы - температура, при понижении до которой содержащийся в воздухе водяной пар достигнет насыщения.
f - Относительная влажность воздуха - влажноcть воздуха, измеренная на высоте 2 м над землей.
Te - Эффективная температура - температура, которую ощущает одетый по сезону человек в тени. Характеристика душности погоды. При расчете учитывается влияние влажности воздуха и скорости ветра на теплоощущения человека.
Tes - Эффективная температура на солнце - температура, которую ощущает человек, с поправкой на солнечный нагрев. Характеристика знойности погоды. Зависит от высоты солнца над горизонтом, облачности и скорости ветра. Ночью, в пасмурную погоду, а также при ветре 12 м/с и более поправка равна нулю.
P - Атмосферное давление - приведенное к уровню моря атмосферное давление.
Po - Атмосферное давление - измеренное на уровне метеостанции атмосферное давление.
Tmin - Минимальная температура - минимум температуры воздуха на высоте 2 м над землей.
Tmax - Максимальная температура - максимум температуры воздуха на высоте 2 м над землей.
R - Количество осадков - Количество выпавших осадков за период времени, мм. При наведении курсора мыши на число - период времени, за который выпало указанное количество осадков.
R24 - Количество осадков - Количество выпавших осадков за 24 часа, мм.
S - Снежный покров - Высота снежного покрова, см. При наведении курсора мыши на число - состояние снежного покрова и степень покрытия местности в баллах.